CZ-6A DEB, 54309

Orbit data source: Space-Track

CZ-6A DEB, 54309 is space debris in SSO originally from a launch on Fri, 11 Nov 2022 UTC launched from the Taiyaun Space Center, China (TSC). Debris objects in space refer to the collection of defunct objects orbiting the Earth. Examples of debris include non-operational satellites, rocket bodies, and fragments generated from explosions, collisions, or faulty payload assembly.

Loading next visibility...
Identifier
54309, 2022-151BC
Orbit
SSO
Country
Flag of CNCN / PRC
Related business
Manufacturer
SAST
Mission
Spacecraft
Bus & Motor
Unknown
Mass
Unknown
Launch date (UTC)
2022-11-11 (4 years ago)
Launch vehicle
Unknown
Launch site
Taiyaun Space Center, China (TSC)
Object type
Payload
Rocket body
Debris
Shape & HBR
Unknown shape, 0.3 m
Radar Cross Section
Medium (>0.1 m² and <1 m²)

Expand to show TLE details & history
Last TLE update: 2 days ago

TLE from 2 days ago
0 CZ-6A DEB
1 54309U 22151BC  26171.41731332  .00000266  00000-0  16660-3 0  9999
2 54309  98.8291 175.4768 0035607 312.3737  47.4422 14.12674101185155
Epoch: 2026-06-20T10:00Z
TLE epoch observation values (Epoch: 2026-06-20T10:00:55.870Z)
Latitude
-0.00006°
Longitude
116.61178°
Altitude
835.775 km
Speed
7.444 km/s
True Right ascension
11h 41m 54s
True Declination
0° 00' 00"
Sunlit
Object was in daylight at epoch
Visualization orbit readout
Latitude
Unknown
Longitude
Unknown
Altitude
Unknown
Speed
Unknown
Apparent Right ascension
Unknown
Apparent Declination
Unknown
Sunlit
N/A
Visualization observer readout
Local Sidereal Time
21:42:56
Azimuth
Unknown
Elevation
Unknown
Doppler factor
Unknown
Orbital elements
Apogee altitude
873.137 km
Perigee altitude
821.681 km
Semi-major axis
7,225.546 km
Eccentricity
0.00356
Inclination
98.8291°
RAAN
175.4768°
Arg. of periapsis
312.3737°
True anomaly
47.74366°
Mean anomaly
47.4422°
Eccentric anomaly
47.59284°
Mean motion
3.53376 °/min
Orbital period
101.87 mins
BSTAR
0.0001666
Loading maneuver chart data...
Computing Atmospheric mass density...
Loading historical data...
Loading historical data...
Loading historical data...
Loading historical data...
Loading historical data...
Loading historical data...
Loading historical data...

Documentation

Showing up to 5 results
|